Time,TemperatureF,DewpointF,PressureIn,WindDirection,WindDirectionDegrees,WindSpeedMPH,WindSpeedGustMPH,Humidity,HourlyPrecipIn,Conditions,Clouds,dailyrainin,SolarRadiationWatts/m^2,SoftwareType,DateUTC
2013-02-22 00:21:00,5.0,1.0,-100.00,SSW,207,0.0,0.0,83,-99.99,,,0.00,0.000000,,2013-02-22 09:21:00,
2013-02-22 00:31:00,5.0,1.0,-100.00,SSW,207,0.0,0.0,83,-99.99,,,0.00,0.000000,,2013-02-22 09:31:00,
2013-02-22 00:41:00,5.0,1.0,-100.00,SSW,207,0.0,0.0,83,-99.99,,,0.00,0.000000,,2013-02-22 09:41:00,
2013-02-22 00:51:00,5.0,1.0,-100.00,SSW,207,0.0,0.0,83,-99.99,,,0.00,0.000000,,2013-02-22 09:51:00,
2013-02-22 01:21:00,2.0,-2.0,-100.00,SSE,161,0.0,1.0,82,0.00,,,0.00,0.000000,,2013-02-22 10:21:00,
2013-02-22 03:21:00,-5.0,-10.0,-100.00,SSW,194,0.0,1.0,80,0.00,,,0.00,0.000000,,2013-02-22 12:21:00,
2013-02-22 06:21:00,2.0,-2.0,-100.00,South,181,0.0,1.0,81,0.00,,,0.00,0.000000,,2013-02-22 15:21:00,
2013-02-22 06:32:00,2.0,-2.0,-100.00,South,181,0.0,1.0,81,0.00,,,0.00,0.000000,,2013-02-22 15:32:00,
2013-02-22 06:41:00,2.0,-2.0,-100.00,South,181,0.0,1.0,81,0.00,,,0.00,0.000000,,2013-02-22 15:41:00,
2013-02-22 06:51:00,2.0,-2.0,-100.00,South,181,0.0,1.0,81,0.00,,,0.00,0.000000,,2013-02-22 15:51:00,
2013-02-22 07:21:00,2.0,-2.0,-100.00,West,264,0.0,1.0,81,0.00,,,0.00,0.000000,,2013-02-22 16:21:00,
2013-02-22 07:31:00,2.0,-2.0,-100.00,West,264,0.0,1.0,81,0.00,,,0.00,0.000000,,2013-02-22 16:31:00,
2013-02-22 07:41:00,2.0,-2.0,-100.00,West,264,0.0,1.0,81,0.00,,,0.00,0.000000,,2013-02-22 16:41:00,
2013-02-22 07:52:00,2.0,-2.0,-100.00,West,264,0.0,1.0,81,0.00,,,0.00,0.000000,,2013-02-22 16:52:00,
2013-02-22 08:21:00,0.0,-4.0,-100.00,SSE,155,0.0,0.0,81,0.00,,,0.00,0.000000,,2013-02-22 17:21:00,
2013-02-22 09:22:00,4.0,-1.0,-100.00,ESE,118,0.0,0.0,81,-99.99,,,0.00,7.000000,,2013-02-22 18:22:00,
2013-02-22 09:32:00,4.0,-1.0,-100.00,ESE,118,0.0,0.0,81,-99.99,,,0.00,7.000000,,2013-02-22 18:32:00,
2013-02-22 09:42:00,4.0,-1.0,-100.00,ESE,118,0.0,0.0,81,-99.99,,,0.00,7.000000,,2013-02-22 18:42:00,
2013-02-22 09:51:00,4.0,-1.0,-100.00,ESE,118,0.0,0.0,81,-99.99,,,0.00,7.000000,,2013-02-22 18:51:00,
2013-02-22 10:11:00,9.0,4.0,-100.00,NE,48,0.0,1.0,80,0.00,,,0.00,18.000000,,2013-02-22 19:11:00,
2013-02-22 10:21:00,9.0,4.0,-100.00,NE,48,0.0,1.0,80,0.00,,,0.00,18.000000,,2013-02-22 19:21:00,
2013-02-22 10:31:00,9.0,4.0,-100.00,NE,48,0.0,1.0,80,0.00,,,0.00,18.000000,,2013-02-22 19:31:00,
2013-02-22 10:41:00,9.0,4.0,-100.00,NE,48,0.0,1.0,80,0.00,,,0.00,18.000000,,2013-02-22 19:41:00,
2013-02-22 10:51:00,9.0,4.0,-100.00,NE,48,0.0,1.0,80,0.00,,,0.00,18.000000,,2013-02-22 19:51:00,
2013-02-22 11:21:00,12.0,6.0,-100.00,ENE,74,1.0,3.0,77,0.00,,,0.00,24.000000,,2013-02-22 20:21:00,
2013-02-22 11:31:00,12.0,6.0,-100.00,ENE,74,1.0,3.0,77,0.00,,,0.00,24.000000,,2013-02-22 20:31:00,
2013-02-22 11:41:00,12.0,6.0,-100.00,ENE,74,1.0,3.0,77,0.00,,,0.00,24.000000,,2013-02-22 20:41:00,
2013-02-22 11:52:00,12.0,6.0,-100.00,ENE,74,1.0,3.0,77,0.00,,,0.00,24.000000,,2013-02-22 20:52:00,
2013-02-22 12:21:00,17.0,6.0,-100.00,SSE,153,0.0,4.0,62,0.00,,,0.00,51.000000,,2013-02-22 21:21:00,
2013-02-22 12:31:00,17.0,6.0,-100.00,SSE,153,0.0,4.0,62,0.00,,,0.00,51.000000,,2013-02-22 21:31:00,
2013-02-22 12:42:00,17.0,6.0,-100.00,SSE,153,0.0,4.0,62,0.00,,,0.00,51.000000,,2013-02-22 21:42:00,
2013-02-22 12:51:00,17.0,6.0,-100.00,SSE,153,0.0,4.0,62,0.00,,,0.00,51.000000,,2013-02-22 21:51:00,
2013-02-22 13:21:00,21.0,7.0,-100.00,SSW,195,0.0,4.0,54,0.00,,,0.00,73.000000,,2013-02-22 22:21:00,
2013-02-22 13:31:00,21.0,7.0,-100.00,SSW,195,0.0,4.0,54,0.00,,,0.00,73.000000,,2013-02-22 22:31:00,
2013-02-22 13:41:00,21.0,7.0,-100.00,SSW,195,0.0,4.0,54,0.00,,,0.00,73.000000,,2013-02-22 22:41:00,
2013-02-22 13:51:00,21.0,7.0,-100.00,SSW,195,0.0,4.0,54,0.00,,,0.00,73.000000,,2013-02-22 22:51:00,
2013-02-22 14:21:00,19.0,8.0,-100.00,WNW,291,1.0,5.0,62,0.00,,,0.00,69.000000,,2013-02-22 23:21:00,
2013-02-22 14:31:00,19.0,8.0,-100.00,WNW,291,1.0,5.0,62,0.00,,,0.00,69.000000,,2013-02-22 23:31:00,
2013-02-22 14:41:00,19.0,8.0,-100.00,WNW,291,1.0,5.0,62,0.00,,,0.00,69.000000,,2013-02-22 23:41:00,
2013-02-22 14:52:00,19.0,8.0,-100.00,WNW,291,1.0,5.0,62,0.00,,,0.00,69.000000,,2013-02-22 23:52:00,
2013-02-22 15:21:00,19.0,8.0,-100.00,SE,131,0.0,4.0,61,0.00,,,0.00,46.000000,,2013-02-23 00:21:00,
2013-02-22 15:32:00,19.0,8.0,-100.00,SE,131,0.0,4.0,61,0.00,,,0.00,46.000000,,2013-02-23 00:32:00,
2013-02-22 15:41:00,19.0,8.0,-100.00,SE,131,0.0,4.0,61,0.00,,,0.00,46.000000,,2013-02-23 00:41:00,
2013-02-22 15:51:00,19.0,8.0,-100.00,SE,131,0.0,4.0,61,0.00,,,0.00,46.000000,,2013-02-23 00:51:00,
2013-02-22 16:21:00,18.0,9.0,-100.00,NW,321,1.0,4.0,67,0.00,,,0.00,31.000000,,2013-02-23 01:21:00,
2013-02-22 16:31:00,18.0,9.0,-100.00,NW,321,1.0,4.0,67,0.00,,,0.00,31.000000,,2013-02-23 01:31:00,
2013-02-22 16:41:00,18.0,9.0,-100.00,NW,321,1.0,4.0,67,0.00,,,0.00,31.000000,,2013-02-23 01:41:00,
2013-02-22 16:51:00,18.0,9.0,-100.00,NW,321,1.0,4.0,67,0.00,,,0.00,31.000000,,2013-02-23 01:51:00,
2013-02-22 17:21:00,14.0,8.0,-100.00,North,4,0.0,3.0,77,0.00,,,0.00,13.000000,,2013-02-23 02:21:00,
2013-02-22 17:31:00,14.0,8.0,-100.00,North,4,0.0,3.0,77,0.00,,,0.00,13.000000,,2013-02-23 02:31:00,
2013-02-22 17:41:00,14.0,8.0,-100.00,North,4,0.0,3.0,77,0.00,,,0.00,13.000000,,2013-02-23 02:41:00,
2013-02-22 17:52:00,14.0,8.0,-100.00,North,4,0.0,3.0,77,0.00,,,0.00,13.000000,,2013-02-23 02:52:00,
2013-02-22 18:21:00,8.0,4.0,-100.00,ESE,121,0.0,1.0,83,0.00,,,0.00,3.000000,,2013-02-23 03:21:00,
2013-02-22 18:31:00,8.0,4.0,-100.00,ESE,121,0.0,1.0,83,0.00,,,0.00,3.000000,,2013-02-23 03:31:00,
2013-02-22 18:41:00,8.0,4.0,-100.00,ESE,121,0.0,1.0,83,0.00,,,0.00,3.000000,,2013-02-23 03:41:00,
2013-02-22 18:51:00,8.0,4.0,-100.00,ESE,121,0.0,1.0,83,0.00,,,0.00,3.000000,,2013-02-23 03:51:00,
2013-02-22 20:12:00,-2.0,-6.0,-100.00,South,171,1.0,2.0,81,0.00,,,0.00,0.000000,,2013-02-23 05:12:00,
2013-02-22 21:11:00,0.0,-4.0,-100.00,SSE,157,0.0,4.0,81,-99.99,,,0.00,0.000000,,2013-02-23 06:11:00,